Time,TemperatureF,DewpointF,PressureIn,WindDirection,WindDirectionDegrees,WindSpeedMPH,WindSpeedGustMPH,Humidity,HourlyPrecipIn,Conditions,Clouds,dailyrainin,SoftwareType,DateUTC
2013-08-10 00:02:00,58.0,54.0,-100.00,South,169,2.0,4.0,85,0.00,,,0.01,,2013-08-10 05:02:00,
2013-08-10 00:11:00,58.0,54.0,-100.00,South,169,2.0,4.0,85,0.00,,,0.01,,2013-08-10 05:11:00,
2013-08-10 00:22:00,58.0,54.0,-100.00,South,169,2.0,4.0,85,0.00,,,0.01,,2013-08-10 05:22:00,
2013-08-10 00:32:00,58.0,54.0,-100.00,South,169,2.0,4.0,85,0.00,,,0.01,,2013-08-10 05:32:00,
2013-08-10 01:02:00,57.0,53.0,-100.00,South,185,0.0,5.0,85,0.00,,,0.01,,2013-08-10 06:02:00,
2013-08-10 01:11:00,57.0,53.0,-100.00,South,185,0.0,5.0,85,0.00,,,0.01,,2013-08-10 06:11:00,
2013-08-10 01:22:00,57.0,53.0,-100.00,South,185,0.0,5.0,85,0.00,,,0.01,,2013-08-10 06:22:00,
2013-08-10 01:32:00,57.0,53.0,-100.00,South,185,0.0,5.0,85,0.00,,,0.01,,2013-08-10 06:32:00,
2013-08-10 02:02:00,57.0,53.0,-100.00,East,80,0.0,4.0,86,0.00,,,0.01,,2013-08-10 07:02:00,
2013-08-10 02:12:00,57.0,53.0,-100.00,East,80,0.0,4.0,86,0.00,,,0.01,,2013-08-10 07:12:00,
2013-08-10 02:22:00,57.0,53.0,-100.00,East,80,0.0,4.0,86,0.00,,,0.01,,2013-08-10 07:22:00,
2013-08-10 02:33:00,57.0,53.0,-100.00,East,80,0.0,4.0,86,0.00,,,0.01,,2013-08-10 07:33:00,
2013-08-10 03:01:00,56.0,53.0,-100.00,ENE,74,0.0,4.0,89,0.00,,,0.01,,2013-08-10 08:01:00,
2013-08-10 03:12:00,56.0,53.0,-100.00,ENE,74,0.0,4.0,89,0.00,,,0.01,,2013-08-10 08:12:00,
2013-08-10 03:22:00,56.0,53.0,-100.00,ENE,74,0.0,4.0,89,0.00,,,0.01,,2013-08-10 08:22:00,
2013-08-10 03:32:00,56.0,53.0,-100.00,ENE,74,0.0,4.0,89,0.00,,,0.01,,2013-08-10 08:32:00,
2013-08-10 04:02:00,51.0,50.0,-100.00,South,175,0.0,0.0,96,0.00,,,0.01,,2013-08-10 09:02:00,
2013-08-10 04:12:00,51.0,50.0,-100.00,South,175,0.0,0.0,96,0.00,,,0.01,,2013-08-10 09:12:00,
2013-08-10 04:22:00,51.0,50.0,-100.00,South,175,0.0,0.0,96,0.00,,,0.01,,2013-08-10 09:22:00,
2013-08-10 04:32:00,51.0,50.0,-100.00,South,175,0.0,0.0,96,0.00,,,0.01,,2013-08-10 09:32:00,
2013-08-10 05:02:00,49.0,48.0,-100.00,South,183,0.0,2.0,98,0.00,,,0.01,,2013-08-10 10:02:00,
2013-08-10 05:11:00,49.0,48.0,-100.00,South,183,0.0,2.0,98,0.00,,,0.01,,2013-08-10 10:11:00,
2013-08-10 05:22:00,49.0,48.0,-100.00,South,183,0.0,2.0,98,0.00,,,0.01,,2013-08-10 10:22:00,
2013-08-10 05:33:00,49.0,48.0,-100.00,South,183,0.0,2.0,98,0.00,,,0.01,,2013-08-10 10:33:00,
2013-08-10 06:02:00,47.0,46.0,-100.00,South,182,1.0,2.0,98,0.00,,,-99.99,,2013-08-10 11:02:00,
2013-08-10 06:11:00,47.0,46.0,-100.00,South,182,1.0,2.0,98,0.00,,,-99.99,,2013-08-10 11:11:00,
2013-08-10 06:22:00,47.0,46.0,-100.00,South,182,1.0,2.0,98,0.00,,,-99.99,,2013-08-10 11:22:00,
2013-08-10 06:33:00,47.0,46.0,-100.00,South,182,1.0,2.0,98,0.00,,,-99.99,,2013-08-10 11:33:00,
2013-08-10 09:02:00,54.0,54.0,-100.00,ESE,123,0.0,0.0,99,-99.99,,,0.01,,2013-08-10 14:02:00,
2013-08-10 09:12:00,54.0,54.0,-100.00,ESE,123,0.0,0.0,99,-99.99,,,0.01,,2013-08-10 14:12:00,
2013-08-10 09:22:00,54.0,54.0,-100.00,ESE,123,0.0,0.0,99,-99.99,,,0.01,,2013-08-10 14:22:00,
2013-08-10 09:33:00,54.0,54.0,-100.00,ESE,123,0.0,0.0,99,-99.99,,,0.01,,2013-08-10 14:33:00,
2013-08-10 10:02:00,57.0,57.0,-100.00,SE,142,1.0,4.0,99,0.00,,,0.01,,2013-08-10 15:02:00,
2013-08-10 10:12:00,57.0,57.0,-100.00,SE,142,1.0,4.0,99,0.00,,,0.01,,2013-08-10 15:12:00,
2013-08-10 10:22:00,57.0,57.0,-100.00,SE,142,1.0,4.0,99,0.00,,,0.01,,2013-08-10 15:22:00,
2013-08-10 10:34:00,57.0,57.0,-100.00,SE,142,1.0,4.0,99,0.00,,,0.01,,2013-08-10 15:34:00,
2013-08-10 11:01:00,63.0,53.0,-100.00,ENE,70,2.0,7.0,71,-99.99,,,0.01,,2013-08-10 16:01:00,
2013-08-10 11:11:00,63.0,53.0,-100.00,ENE,70,2.0,7.0,71,-99.99,,,0.01,,2013-08-10 16:11:00,
2013-08-10 11:22:00,63.0,53.0,-100.00,ENE,70,2.0,7.0,71,-99.99,,,0.01,,2013-08-10 16:22:00,
2013-08-10 11:32:00,63.0,53.0,-100.00,ENE,70,2.0,7.0,71,-99.99,,,0.01,,2013-08-10 16:32:00,
2013-08-10 12:02:00,66.0,53.0,-100.00,WSW,253,3.0,6.0,62,0.00,,,0.01,,2013-08-10 17:02:00,
2013-08-10 12:12:00,66.0,53.0,-100.00,WSW,253,3.0,6.0,62,0.00,,,0.01,,2013-08-10 17:12:00,
2013-08-10 12:22:00,66.0,53.0,-100.00,WSW,253,3.0,6.0,62,0.00,,,0.01,,2013-08-10 17:22:00,
2013-08-10 12:33:00,66.0,53.0,-100.00,WSW,253,3.0,6.0,62,0.00,,,0.01,,2013-08-10 17:33:00,
2013-08-10 13:01:00,72.0,55.0,-100.00,SSW,208,3.0,7.0,55,0.00,,,0.01,,2013-08-10 18:01:00,
2013-08-10 13:11:00,72.0,55.0,-100.00,SSW,208,3.0,7.0,55,0.00,,,0.01,,2013-08-10 18:11:00,
2013-08-10 13:23:00,72.0,55.0,-100.00,SSW,208,3.0,7.0,55,0.00,,,0.01,,2013-08-10 18:23:00,
2013-08-10 13:32:00,72.0,55.0,-100.00,SSW,208,3.0,7.0,55,0.00,,,0.01,,2013-08-10 18:32:00,
2013-08-10 14:02:00,71.0,50.0,-100.00,ENE,72,1.0,7.0,47,0.00,,,0.01,,2013-08-10 19:02:00,
2013-08-10 14:11:00,71.0,50.0,-100.00,ENE,72,1.0,7.0,47,0.00,,,0.01,,2013-08-10 19:11:00,
2013-08-10 14:22:00,71.0,50.0,-100.00,ENE,72,1.0,7.0,47,0.00,,,0.01,,2013-08-10 19:22:00,
2013-08-10 14:33:00,71.0,50.0,-100.00,ENE,72,1.0,7.0,47,0.00,,,0.01,,2013-08-10 19:33:00,
2013-08-10 15:02:00,74.0,53.0,-100.00,West,273,3.0,9.0,48,0.00,,,0.01,,2013-08-10 20:02:00,
2013-08-10 15:12:00,74.0,53.0,-100.00,West,273,3.0,9.0,48,0.00,,,0.01,,2013-08-10 20:12:00,
2013-08-10 15:22:00,74.0,53.0,-100.00,West,273,3.0,9.0,48,0.00,,,0.01,,2013-08-10 20:22:00,
2013-08-10 15:33:00,74.0,53.0,-100.00,West,273,3.0,9.0,48,0.00,,,0.01,,2013-08-10 20:33:00,
2013-08-10 16:02:00,74.0,51.0,-100.00,NNW,342,2.0,8.0,45,0.00,,,0.01,,2013-08-10 21:02:00,
2013-08-10 16:12:00,74.0,51.0,-100.00,NNW,342,2.0,8.0,45,0.00,,,0.01,,2013-08-10 21:12:00,
2013-08-10 16:22:00,74.0,51.0,-100.00,NNW,342,2.0,8.0,45,0.00,,,0.01,,2013-08-10 21:22:00,
2013-08-10 16:32:00,74.0,51.0,-100.00,NNW,342,2.0,8.0,45,0.00,,,0.01,,2013-08-10 21:32:00,
2013-08-10 17:01:00,77.0,53.0,-100.00,SW,216,4.0,9.0,43,0.00,,,0.00,,2013-08-10 22:01:00,
2013-08-10 17:11:00,77.0,53.0,-100.00,SW,216,4.0,9.0,43,0.00,,,0.00,,2013-08-10 22:11:00,
2013-08-10 17:21:00,77.0,53.0,-100.00,SW,216,4.0,9.0,43,0.00,,,0.00,,2013-08-10 22:21:00,
2013-08-10 17:32:00,77.0,53.0,-100.00,SW,216,4.0,9.0,43,0.00,,,0.00,,2013-08-10 22:32:00,
2013-08-10 18:01:00,75.0,48.0,-100.00,SSW,205,4.0,9.0,39,0.00,,,0.00,,2013-08-10 23:01:00,
2013-08-10 18:12:00,75.0,48.0,-100.00,SSW,205,4.0,9.0,39,0.00,,,0.00,,2013-08-10 23:12:00,
2013-08-10 18:22:00,75.0,48.0,-100.00,SSW,205,4.0,9.0,39,0.00,,,0.00,,2013-08-10 23:22:00,
2013-08-10 18:32:00,75.0,48.0,-100.00,SSW,205,4.0,9.0,39,0.00,,,0.00,,2013-08-10 23:32:00,
2013-08-10 19:02:00,75.0,50.0,-100.00,SW,235,3.0,7.0,42,0.00,,,0.00,,2013-08-11 00:02:00,
2013-08-10 19:11:00,75.0,50.0,-100.00,SW,235,3.0,7.0,42,0.00,,,0.00,,2013-08-11 00:11:00,
2013-08-10 19:22:00,75.0,50.0,-100.00,SW,235,3.0,7.0,42,0.00,,,0.00,,2013-08-11 00:22:00,
2013-08-10 19:32:00,75.0,50.0,-100.00,SW,235,3.0,7.0,42,0.00,,,0.00,,2013-08-11 00:32:00,
2013-08-10 20:01:00,65.0,56.0,-100.00,South,191,1.0,6.0,72,0.00,,,0.00,,2013-08-11 01:01:00,
2013-08-10 20:11:00,65.0,56.0,-100.00,South,191,1.0,6.0,72,0.00,,,0.00,,2013-08-11 01:11:00,
2013-08-10 20:22:00,65.0,56.0,-100.00,South,191,1.0,6.0,72,0.00,,,0.00,,2013-08-11 01:22:00,
2013-08-10 20:32:00,65.0,56.0,-100.00,South,191,1.0,6.0,72,0.00,,,0.00,,2013-08-11 01:32:00,
2013-08-10 21:02:00,60.0,54.0,-100.00,South,190,0.0,2.0,80,0.00,,,0.00,,2013-08-11 02:02:00,
2013-08-10 21:11:00,60.0,54.0,-100.00,South,190,0.0,2.0,80,0.00,,,0.00,,2013-08-11 02:11:00,
2013-08-10 21:22:00,60.0,54.0,-100.00,South,190,0.0,2.0,80,0.00,,,0.00,,2013-08-11 02:22:00,
2013-08-10 21:32:00,60.0,54.0,-100.00,South,190,0.0,2.0,80,0.00,,,0.00,,2013-08-11 02:32:00,
2013-08-10 22:05:00,55.0,53.0,-100.00,South,175,0.0,0.0,92,0.00,,,0.00,,2013-08-11 03:05:00,
2013-08-10 22:17:00,55.0,53.0,-100.00,South,175,0.0,0.0,92,0.00,,,0.00,,2013-08-11 03:17:00,
2013-08-10 22:27:00,55.0,53.0,-100.00,South,175,0.0,0.0,92,0.00,,,0.00,,2013-08-11 03:27:00,
2013-08-10 22:35:00,55.0,53.0,-100.00,South,175,0.0,0.0,92,0.00,,,0.00,,2013-08-11 03:35:00,
2013-08-10 23:01:00,54.0,53.0,-100.00,SSW,195,2.0,3.0,96,0.00,,,0.00,,2013-08-11 04:01:00,
2013-08-10 23:12:00,54.0,53.0,-100.00,SSW,195,2.0,3.0,96,0.00,,,0.00,,2013-08-11 04:12:00,
2013-08-10 23:22:00,54.0,53.0,-100.00,SSW,195,2.0,3.0,96,0.00,,,0.00,,2013-08-11 04:22:00,
2013-08-10 23:32:00,54.0,53.0,-100.00,SSW,195,2.0,3.0,96,0.00,,,0.00,,2013-08-11 04:32:00,